Location: Unspecified
(44.8040°N, 0.0000°E)
Time: 08:14:10
(UTC+00:00)

O/OREOS (USA 219) - Visible Passes

Search period start: 04 April 2026 00:00
Search period end: 14 April 2026 00:00
Orbit: 576 x 599 km, 72.0° (Epoch: 28 March)

Date Brightness Start Highest point End Pass type
(mag) Time Alt. Az. Time Alt. Az. Time Alt. Az.
4 Apr ? 04:37:25 10° SSW 04:41:43 64° ESE 04:46:01 10° NNE visible
5 Apr ? 03:10:36 10° ESE 03:11:13 10° E 03:11:51 10° E visible
5 Apr ? 04:44:35 10° SSW 04:48:56 80° WNW 04:53:18 10° NNE visible
6 Apr ? 03:15:27 10° SE 03:18:13 17° E 03:20:59 10° ENE visible
6 Apr ? 04:51:59 10° SW 04:56:12 50° WNW 05:00:27 10° NNE visible
7 Apr ? 03:22:09 13° SSE 03:25:15 26° ESE 03:28:52 10° NE visible
7 Apr ? 04:59:37 10° WSW 05:03:33 33° WNW 05:07:29 10° N visible
8 Apr ? 03:29:47 20° SSE 03:32:20 41° ESE 03:36:26 10° NE visible
9 Apr ? 03:37:18 28° S 03:39:29 67° ESE 03:43:49 10° NNE visible
10 Apr ? 02:08:16 11° ESE 02:08:56 11° E 02:10:03 10° E visible
10 Apr ? 03:44:45 32° SW 03:46:41 76° WNW 03:51:02 10° NNE visible
11 Apr ? 02:15:38 17° ESE 02:15:55 18° E 02:18:48 10° ENE visible
11 Apr ? 03:52:08 29° WSW 03:53:56 48° WNW 03:58:09 10° NNE visible
12 Apr ? 02:22:57 27° ESE 02:22:57 27° ESE 02:26:36 10° NE visible
12 Apr ? 03:59:26 23° W 04:01:14 31° WNW 04:05:08 10° N visible
13 Apr ? 02:30:12 43° E 02:30:12 43° E 02:34:07 10° NE visible
13 Apr ? 04:06:41 16° W 04:08:36 21° NW 04:11:57 10° N visible
